Weather History for KSGJ - March, 2013

Change the Weather History Date:

Tuesday, March 12, 2013

  Actual Average Record
Temperature  
Mean Temperature 64 °F -  
Max Temperature 73 °F 68 °F 87 °F (1985)
Min Temperature 55 °F 52 °F 37 °F (2011)
Degree Days  
Heating Degree Days 1    
Growing Degree Days 14 (Base 50)    
Moisture  
Dew Point 61 °F    
Average Humidity 82    
Maximum Humidity 100    
Minimum Humidity 60    
Precipitation  
Precipitation 0.03 in - - ()
Sea Level Pressure  
Sea Level Pressure 29.92 in    
Wind  
Wind Speed 10 mph (SW)    
Max Wind Speed 15 mph    
Max Gust Speed 22 mph    
Visibility 8 miles    
Events Rain    
Averages and records for this station are not official NWS values.
T = Trace of Precipitation, MM = Missing Value Source: NWS Daily Summary

Daily Weather History Graph

Daily Weather History Graph

Search for Another Location

Airport or City:

Trip Planner

Search our weather history database for the weather conditions in past years. The results will help you decide how hot, cold, wet, or windy it might be!

Date:

Astronomy

Mar. 12, 2013 Rise Set
Actual Time 7:38 AM EDT 7:31 PM EDT
Civil Twilight 7:14 AM EDT 7:55 PM EDT
Nautical Twilight 6:46 AM EDT 8:23 PM EDT
Astronomical Twilight 6:19 AM EDT 8:51 PM EDT
Moon 7:50 AM EDT (3/12) 8:36 PM EDT (3/12)
Length of Visible Light 12h 41m
Length of Day
11h 53m
New Moon, 1% of the Moon is Illuminated
Mar 12
New Moon
Mar 19
First Quarter
Mar 27
Full
Apr 3
Last Quarter
Apr 10
New

Hourly Weather History & Observations

Time (EDT) Temp. Dew Point Humidity Pressure Visibility Wind Dir Wind Speed Gust Speed Precip Events Conditions
12:58 AM 66.9 °F 62.1 °F 84% 29.93 in 10.0 mi SSE 9.2 mph - 0.00 in   Clear
1:58 AM 66.9 °F 62.1 °F 84% 29.91 in 10.0 mi South 10.4 mph - N/A   Clear
2:58 AM 68.0 °F 60.1 °F 76% 29.89 in 10.0 mi South 13.8 mph - N/A   Scattered Clouds
3:58 AM 68.0 °F 60.1 °F 76% 29.87 in 10.0 mi South 15.0 mph 21.9 mph 0.00 in Rain Light Rain
4:58 AM 69.1 °F 60.1 °F 73% 29.88 in 10.0 mi South 12.7 mph - 0.00 in   Overcast
5:58 AM 68.0 °F 60.1 °F 76% 29.88 in 10.0 mi South 11.5 mph - 0.00 in   Overcast
6:58 AM 68.0 °F 60.1 °F 76% 29.89 in 10.0 mi South 13.8 mph - N/A   Overcast
7:58 AM 66.0 °F 62.1 °F 87% 29.90 in 4.0 mi South 9.2 mph - 0.02 in Rain Light Rain
8:58 AM 64.9 °F 63.0 °F 93% 29.91 in 5.0 mi South 6.9 mph - 0.00 in Rain Light Rain
9:10 AM 64.4 °F 62.6 °F 94% 29.91 in 5.0 mi South 6.9 mph - N/A   Overcast
9:53 AM 64.4 °F 62.6 °F 94% 29.92 in 5.0 mi South 10.4 mph - 0.00 in Rain Light Rain
9:58 AM 64.9 °F 63.0 °F 93% 29.92 in 5.0 mi South 11.5 mph - 0.00 in Rain Light Rain
10:10 AM 64.4 °F 62.6 °F 94% 29.92 in 2.0 mi South 9.2 mph - 0.01 in Rain Light Rain
10:37 AM 64.4 °F 64.4 °F 100% 29.93 in 2.0 mi SSW 5.8 mph - 0.01 in Rain Light Rain
10:58 AM 66.0 °F 64.0 °F 93% 29.94 in 2.0 mi SSW 8.1 mph - 0.01 in   Overcast
11:02 AM 66.2 °F 64.4 °F 94% 29.93 in 4.0 mi South 6.9 mph - N/A   Overcast
11:06 AM 66.2 °F 64.4 °F 94% 29.93 in 4.0 mi South 10.4 mph - N/A   Overcast
11:46 AM 66.2 °F 64.4 °F 94% 29.94 in 4.0 mi SSW 12.7 mph - N/A   Overcast
11:58 AM 66.9 °F 64.0 °F 90% 29.94 in 4.0 mi SSW 9.2 mph - N/A   Overcast
12:58 PM 68.0 °F 66.0 °F 93% 29.94 in 3.0 mi SW 9.2 mph - N/A   Overcast
1:58 PM 70.0 °F 66.0 °F 87% 29.91 in 5.0 mi SW 9.2 mph - 0.00 in   Overcast
2:54 PM 71.6 °F 64.4 °F 78% 29.89 in 10.0 mi WSW 5.8 mph 16.1 mph N/A   Overcast
2:58 PM 72.0 °F 64.9 °F 78% 29.89 in 10.0 mi WSW 9.2 mph 16.1 mph N/A   Overcast
3:02 PM 71.6 °F 64.4 °F 78% 29.89 in 10.0 mi WSW 10.4 mph - N/A   Overcast
3:12 PM 73.4 °F 64.4 °F 73% 29.88 in 10.0 mi Variable 6.9 mph - N/A   Overcast
3:58 PM 72.0 °F 64.0 °F 76% 29.88 in 10.0 mi West 11.5 mph 17.3 mph N/A   Overcast
4:58 PM 68.0 °F 62.1 °F 81% 29.90 in 10.0 mi West 9.2 mph - N/A   Mostly Cloudy
5:02 PM 68.0 °F 62.6 °F 83% 29.90 in 10.0 mi West 13.8 mph 18.4 mph N/A   Overcast
5:08 PM 68.0 °F 60.8 °F 78% 29.90 in 10.0 mi West 12.7 mph 18.4 mph N/A   Overcast
5:58 PM 69.1 °F 61.0 °F 75% 29.91 in 10.0 mi WNW 9.2 mph - N/A   Partly Cloudy
6:16 PM 69.8 °F 60.8 °F 73% 29.92 in 10.0 mi West 5.8 mph - N/A   Mostly Cloudy
6:35 PM 68.0 °F 60.8 °F 78% 29.93 in 10.0 mi NW 9.2 mph - N/A   Scattered Clouds
6:58 PM 68.0 °F 57.0 °F 68% 29.94 in 10.0 mi WNW 9.2 mph - N/A   Clear
7:58 PM 64.0 °F 57.0 °F 78% 29.96 in 10.0 mi WNW 5.8 mph - N/A   Clear
8:58 PM 61.0 °F 46.9 °F 60% 29.99 in 10.0 mi WNW 8.1 mph - N/A   Clear
9:58 PM 59.0 °F 46.0 °F 62% 30.01 in 10.0 mi NW 10.4 mph - N/A   Clear
10:58 PM 55.9 °F 46.0 °F 69% 30.03 in 10.0 mi NW 8.1 mph - N/A   Clear
11:58 PM 55.0 °F 46.0 °F 72% 30.04 in 10.0 mi West 5.8 mph - N/A   Clear